EW1090 Weather Reports


Display with metric or nautical units.
time (UTC)temp
F
wind
direction
speed
MPH
gust
MPH
rain 1hr
in
rain 24hr
in
rain mn
in
humidity
%
barometer
mb
20260506113308 75 123 0.0 4.0 0.00 0.00 0.00 89 1011.7
20260506112823 75 101 0.0 5.0 0.00 0.00 0.00 88 1011.7
20260506112340 75 213 1.0 6.0 0.00 0.00 0.00 88 1011.7
20260506111816 75 236 0.0 3.0 0.00 0.00 0.00 88 1011.6
20260506111313 75 155 0.0 3.0 0.00 0.00 0.00 88 1011.6
20260506110808 75 209 0.0 5.0 0.00 0.00 0.00 87 1011.6
20260506110324 75 227 2.0 5.0 0.00 0.00 0.00 87 1011.6
20260506105821 75 188 0.0 6.0 0.00 0.00 0.00 86 1011.5
20260506105333 75 188 0.0 6.0 0.00 0.00 0.00 86 1011.5
20260506104808 75 187 1.0 7.0 0.00 0.00 0.00 85 1011.5
20260506104323 75 172 1.0 7.0 0.00 0.00 0.00 85 1011.3
20260506103819 75 227 2.0 9.0 0.00 0.00 0.00 84 1011.2
20260506103315 75 191 3.0 9.0 0.00 0.00 0.00 84 1011.3
20260506102812 75 317 2.0 7.0 0.00 0.00 0.00 83 1011.3
20260506102308 75 176 2.0 7.0 0.00 0.00 0.00 83 1011.2
20260506101823 75 127 2.0 8.0 0.00 0.00 0.00 83 1011.2
20260506101309 75 259 1.0 8.0 0.00 0.00 0.00 83 1011.2
20260506100809 75 198 2.0 8.0 0.00 0.00 0.00 83 1011.1
20260506100320 75 198 2.0 4.0 0.00 0.00 0.00 83 1011.1
20260506095809 75 212 2.0 4.0 0.00 0.00 0.00 83 1011.1
20260506095321 75 119 2.0 4.0 0.00 0.00 0.00 83 1011.1
20260506094850 75 238 2.0 6.0 0.00 0.00 0.00 83 1011.1
20260506094316 75 219 2.0 7.0 0.00 0.00 0.00 83 1011.2
20260506093825 75 217 1.0 7.0 0.00 0.00 0.00 83 1011.1
20260506093313 75 88 1.0 8.0 0.00 0.00 0.00 83 1011.0
20260506092842 75 192 1.0 5.0 0.00 0.00 0.00 83 1011.1
20260506092330 75 225 2.0 5.0 0.00 0.00 0.00 83 1011.1
20260506091838 75 194 1.0 4.0 0.00 0.00 0.00 83 1011.1
20260506091326 75 223 2.0 4.0 0.00 0.00 0.00 83 1011.1
20260506090813 75 221 2.0 4.0 0.00 0.00 0.00 83 1011.2
20260506090342 75 192 1.0 4.0 0.00 0.00 0.00 83 1011.3
20260506085810 75 139 1.0 4.0 0.00 0.00 0.00 82 1011.2
20260506085318 75 226 1.0 4.0 0.00 0.00 0.00 82 1011.3
20260506084811 75 226 0.0 4.0 0.00 0.00 0.00 82 1011.4
20260506083819 74 267 0.0 2.0 0.00 0.00 0.00 82 1011.3
20260506083307 74 74 0.0 2.0 0.00 0.00 0.00 82 1011.2
20260506082816 74 59 0.0 2.0 0.00 0.00 0.00 82 1011.2
20260506082325 74 59 1.0 2.0 0.00 0.00 0.00 82 1011.2
20260506081814 74 50 1.0 3.0 0.00 0.00 0.00 82 1011.1
20260506081324 74 50 1.0 3.0 0.00 0.00 0.00 82 1011.1
20260506080812 74 182 1.0 5.0 0.00 0.00 0.00 82 1011.0
20260506080326 74 225 1.0 5.0 0.00 0.00 0.00 82 1011.0
20260506073316 74 225 1.0 4.0 0.00 0.00 0.00 83 1011.2
20260506072825 74 144 0.0 4.0 0.00 0.00 0.00 83 1011.2
20260506072314 74 159 0.0 3.0 0.00 0.00 0.00 83 1011.3
20260506071822 74 194 0.0 3.0 0.00 0.00 0.00 83 1011.2
20260506071314 74 182 0.0 3.0 0.00 0.00 0.00 83 1011.2
20260506070823 74 302 1.0 5.0 0.00 0.00 0.00 83 1011.2
20260506070311 74 250 1.0 5.0 0.00 0.00 0.00 83 1011.3
20260506062312 74 153 1.0 7.0 0.00 0.00 0.00 83 1011.6
20260506061806 74 169 2.0 6.0 0.00 0.00 0.00 83 1011.6
20260506061324 74 267 1.0 5.0 0.00 0.00 0.00 83 1011.6
20260506060842 74 113 0.0 5.0 0.00 0.00 0.00 82 1011.5
20260506060314 74 173 1.0 6.0 0.00 0.00 0.00 82 1011.5
20260506051316 74 142 1.0 5.0 0.00 0.00 0.00 82 1011.9
20260506050813 74 77 2.0 6.0 0.00 0.00 0.00 82 1011.8
20260506050309 74 80 1.0 6.0 0.00 0.00 0.00 82 1011.7
20260506044813 74 180 1.0 8.0 0.00 0.00 0.00 82 1011.8
20260506044309 74 85 2.0 8.0 0.00 0.00 0.00 82 1011.9
20260506043821 74 140 1.0 6.0 0.00 0.00 0.00 81 1011.9
20260506043317 74 91 2.0 8.0 0.00 0.00 0.00 81 1011.9
20260506042814 74 157 3.0 10.0 0.00 0.00 0.00 82 1011.9
20260506042311 74 109 2.0 10.0 0.00 0.00 0.00 81 1012.0
20260506041827 74 213 2.0 8.0 0.00 0.00 0.00 81 1012.0
20260506041323 74 130 3.0 8.0 0.00 0.00 0.00 81 1012.0
20260506040820 74 155 1.0 7.0 0.00 0.00 0.00 81 1012.0
20260506040335 74 102 1.0 8.0 0.00 0.00 0.00 81 1012.0
20260506035810 74 166 2.0 8.0 0.00 0.00 0.00 81 1011.9
20260506035326 74 155 2.0 8.0 0.00 0.00 0.00 80 1012.0
20260506034842 74 146 2.0 7.0 0.00 0.00 0.00 80 1012.1
20260506034318 75 167 2.0 8.0 0.00 0.00 0.00 80 1012.1
20260506033814 75 239 3.0 8.0 0.00 0.00 0.00 80 1011.9
20260506033331 75 145 1.0 8.0 0.00 0.00 0.00 80 1011.9
20260506032847 75 172 2.0 8.0 0.00 0.00 0.00 80 1012.0
20260506032323 75 151 1.0 4.0 0.00 0.00 0.00 79 1012.0
20260506031839 75 153 1.0 9.0 0.00 0.00 0.00 79 1012.0
20260506031315 75 156 2.0 9.0 0.00 0.00 0.00 79 1012.0
20260506030831 75 155 2.0 9.0 0.00 0.00 0.00 78 1012.0
20260506030348 75 178 2.0 9.0 0.00 0.00 0.00 78 1012.0
20260506025822 75 136 3.0 7.0 0.00 0.00 0.00 78 1012.0
20260506025318 75 307 1.0 5.0 0.00 0.00 0.00 78 1012.0
20260506024813 75 167 1.0 11.0 0.00 0.00 0.00 78 1012.0
20260506024309 75 109 2.0 11.0 0.00 0.00 0.00 77 1011.9
20260506023825 75 136 1.0 5.0 0.00 0.00 0.00 77 1011.9
20260506023321 76 46 1.0 5.0 0.00 0.00 0.00 77 1011.8
20260506022818 76 164 1.0 5.0 0.00 0.00 0.00 76 1011.8
20260506022314 76 175 1.0 4.0 0.00 0.00 0.00 76 1011.8
20260506021812 76 180 1.0 4.0 0.00 0.00 0.00 75 1011.7
20260506021307 76 143 2.0 6.0 0.00 0.00 0.00 75 1011.6
20260506020823 76 139 1.0 6.0 0.00 0.00 0.00 75 1011.6
20260506020313 76 191 2.0 4.0 0.00 0.00 0.00 75 1011.6
20260506015825 76 183 1.0 6.0 0.00 0.00 0.00 75 1011.5
20260506015341 76 225 2.0 6.0 0.00 0.00 0.00 75 1011.6
20260506014816 76 196 1.0 4.0 0.00 0.00 0.00 75 1011.5
20260506014314 76 180 1.0 4.0 0.00 0.00 0.00 75 1011.3
20260506013830 76 192 1.0 4.0 0.00 0.00 0.00 75 1011.3
20260506013345 76 208 0.0 4.0 0.00 0.00 0.00 75 1011.4
20260506012840 76 188 1.0 5.0 0.00 0.00 0.00 74 1011.4
20260506012315 77 126 1.0 5.0 0.00 0.00 0.00 74 1011.4
20260506011832 77 178 1.0 7.0 0.00 0.00 0.00 73 1011.4
20260506011328 77 180 1.0 5.0 0.00 0.00 0.00 73 1011.3
20260506010843 77 184 1.0 5.0 0.00 0.00 0.00 73 1011.3
20260506010317 77 223 1.0 5.0 0.00 0.00 0.00 73 1011.4
20260506005813 77 313 2.0 7.0 0.00 0.00 0.00 72 1011.3
20260506005330 77 200 2.0 7.0 0.00 0.00 0.00 73 1011.5
20260506004846 77 166 2.0 6.0 0.00 0.00 0.00 72 1011.6
20260506004341 77 126 2.0 7.0 0.00 0.00 0.00 72 1011.4
20260506003815 77 252 3.0 7.0 0.00 0.00 0.00 71 1011.3
20260506003312 78 227 1.0 7.0 0.00 0.00 0.00 71 1011.4
20260506002809 78 166 3.0 7.0 0.00 0.00 0.00 71 1011.4
20260506002326 78 229 2.0 6.0 0.00 0.00 0.00 70 1011.4
20260506001842 78 178 2.0 6.0 0.00 0.00 0.00 70 1011.3
20260506001317 78 194 1.0 7.0 0.00 0.00 0.00 69 1011.3
20260506000813 78 225 0.0 7.0 0.00 0.00 0.00 69 1011.3
20260506000309 79 144 1.0 6.0 0.00 0.00 0.00 69 1011.3
20260505235821 79 250 1.0 6.0 0.00 0.00 0.00 68 1011.3
20260505235317 79 175 3.0 6.0 0.00 0.00 0.00 68 1011.3
20260505234814 79 134 2.0 7.0 0.00 0.00 0.00 67 1011.3
20260505234310 79 227 1.0 7.0 0.00 0.00 0.00 67 1011.3
20260505233824 80 245 2.0 7.0 0.00 0.00 0.00 66 1011.3
20260505233320 80 208 0.0 4.0 0.00 0.00 0.00 67 1011.3
20260505232815 80 107 1.0 4.0 0.00 0.00 0.00 66 1011.3
20260505232311 80 190 1.0 6.0 0.00 0.00 0.00 66 1011.3
20260505231827 81 193 1.0 6.0 0.00 0.00 0.00 65 1011.4
20260505231323 81 90 2.0 6.0 0.00 0.00 0.00 64 1011.4
20260505230819 81 181 1.0 7.0 0.00 0.00 0.00 64 1011.5
20260505230315 82 179 2.0 9.0 0.00 0.00 0.00 64 1011.4
20260505225811 81 140 1.0 9.0 0.00 0.00 0.00 65 1011.4
20260505225308 81 169 4.0 10.0 0.00 0.00 0.00 64 1011.5
20260505224824 81 271 3.0 8.0 0.00 0.00 0.00 64 1011.4
20260505224406 81 94 1.0 9.0 0.00 0.00 0.00 64 1011.4
20260505223821 81 161 3.0 9.0 0.00 0.00 0.00 63 1011.3
20260505223337 82 167 3.0 7.0 0.00 0.00 0.00 63 1011.3
20260505222812 82 117 0.0 10.0 0.00 0.00 0.00 63 1011.3
20260505222310 82 119 3.0 12.0 0.00 0.00 0.00 63 1011.1
20260505221826 82 295 4.0 10.0 0.00 0.00 0.00 63 1011.2
20260505221323 82 201 2.0 14.0 0.00 0.00 0.00 63 1011.2
20260505220841 82 238 3.0 14.0 0.00 0.00 0.00 62 1011.1
20260505220315 82 117 4.0 9.0 0.00 0.00 0.00 62 1011.2
20260505215811 82 122 3.0 7.0 0.00 0.00 0.00 62 1011.2
20260505215307 82 254 2.0 10.0 0.00 0.00 0.00 63 1011.2
20260505214825 81 148 2.0 15.0 0.00 0.00 0.00 64 1011.2
20260505214321 81 224 6.0 15.0 0.00 0.00 0.00 63 1011.4
20260505213818 81 207 3.0 13.0 0.00 0.00 0.00 63 1011.4
20260505213314 82 225 6.0 14.0 0.00 0.00 0.00 62 1011.3
20260505212808 82 110 4.0 12.0 0.00 0.00 0.00 63 1011.3
20260505212324 81 198 5.0 12.0 0.00 0.00 0.00 63 1011.4
20260505211819 82 221 5.0 10.0 0.00 0.00 0.00 63 1011.4
20260505211335 82 202 4.0 13.0 0.00 0.00 0.00 62 1011.6
20260505210830 83 209 4.0 13.0 0.00 0.00 0.00 60 1011.6
20260505210321 84 208 2.0 9.0 0.00 0.00 0.00 60 1011.7
20260505205818 84 191 4.0 10.0 0.00 0.00 0.00 59 1011.7
20260505205315 84 131 3.0 11.0 0.00 0.00 0.00 60 1011.7
20260505204831 83 193 3.0 14.0 0.00 0.00 0.00 60 1011.7
20260505204317 83 227 3.0 11.0 0.00 0.00 0.00 60 1011.7
20260505203833 83 81 2.0 13.0 0.00 0.00 0.00 60 1011.7
20260505203329 84 70 5.0 13.0 0.00 0.00 0.00 59 1011.5
20260505202825 84 240 4.0 10.0 0.00 0.00 0.00 59 1011.5
20260505202322 84 198 2.0 9.0 0.00 0.00 0.00 59 1011.5
20260505201818 84 209 1.0 13.0 0.00 0.00 0.00 60 1011.7
20260505201315 83 167 3.0 13.0 0.00 0.00 0.00 58 1011.7
20260505200810 84 71 3.0 10.0 0.00 0.00 0.00 58 1011.7
20260505200328 83 223 4.0 10.0 0.00 0.00 0.00 57 1011.7
20260505195931 84 254 1.0 11.0 0.00 0.00 0.00 59 1011.8
20260505195346 84 232 1.0 8.0 0.00 0.00 0.00 56 1011.7
20260505194908 85 200 3.0 9.0 0.00 0.00 0.00 55 1011.7
20260505194323 85 212 1.0 11.0 0.00 0.00 0.00 56 1011.7
20260505193836 85 117 4.0 11.0 0.00 0.00 0.00 55 1011.7
20260505193310 85 347 3.0 10.0 0.00 0.00 0.00 54 1011.7
20260505192853 85 149 2.0 10.0 0.00 0.00 0.00 55 1011.7
20260505192348 85 84 3.0 7.0 0.00 0.00 0.00 57 1011.9
20260505191841 84 120 1.0 9.0 0.00 0.00 0.00 56 1012.0
20260505191317 84 199 3.0 11.0 0.00 0.00 0.00 56 1012.0
20260505190813 84 219 5.0 11.0 0.00 0.00 0.00 55 1012.2
20260505190308 84 219 3.0 10.0 0.00 0.00 0.00 56 1012.3
20260505185822 84 207 3.0 10.0 0.00 0.00 0.00 56 1012.3
20260505185319 84 170 2.0 13.0 0.00 0.00 0.00 56 1012.4
20260505184813 84 92 3.0 13.0 0.00 0.00 0.00 55 1012.5
20260505184309 84 174 3.0 9.0 0.00 0.00 0.00 55 1012.5
20260505183825 84 227 5.0 9.0 0.00 0.00 0.00 55 1012.5
20260505183320 84 98 2.0 10.0 0.00 0.00 0.00 57 1012.6
20260505182816 83 81 2.0 10.0 0.00 0.00 0.00 57 1012.7
20260505182332 83 172 3.0 8.0 0.00 0.00 0.00 57 1012.5
20260505181808 83 174 2.0 11.0 0.00 0.00 0.00 58 1012.6
20260505181326 82 340 4.0 11.0 0.00 0.00 0.00 57 1012.8
20260505180820 83 247 3.0 12.0 0.00 0.00 0.00 56 1012.8
20260505180336 83 192 5.0 12.0 0.00 0.00 0.00 56 1012.8
20260505175830 83 187 2.0 8.0 0.00 0.00 0.00 57 1012.8
20260505175345 83 176 2.0 11.0 0.00 0.00 0.00 58 1012.8
20260505174820 82 207 2.0 11.0 0.00 0.00 0.00 60 1012.7
20260505174316 82 161 4.0 9.0 0.00 0.00 0.00 58 1012.7
20260505173811 81 184 2.0 13.0 0.00 0.00 0.00 59 1012.8
20260505173350 81 173 3.0 13.0 0.00 0.00 0.00 58 1012.9
20260505172826 81 265 3.0 10.0 0.00 0.00 0.00 59 1012.8
20260505172321 81 144 3.0 12.0 0.00 0.00 0.00 59 1012.8
20260505171818 81 171 2.0 10.0 0.00 0.00 0.00 60 1012.9
20260505171314 81 203 3.0 10.0 0.00 0.00 0.00 58 1013.0
20260505170811 81 239 4.0 10.0 0.00 0.00 0.00 59 1013.0
20260505170327 81 188 1.0 10.0 0.00 0.00 0.00 59 1012.9
20260505165822 80 219 5.0 10.0 0.00 0.00 0.00 59 1012.9
20260505165317 80 155 3.0 10.0 0.00 0.00 0.00 60 1012.9
20260505164834 80 203 5.0 10.0 0.00 0.00 0.00 59 1012.9
20260505164308 80 207 2.0 10.0 0.00 0.00 0.00 60 1012.9
20260505163824 80 204 4.0 10.0 0.00 0.00 0.00 58 1012.9
20260505163320 80 88 2.0 10.0 0.00 0.00 0.00 59 1012.9
20260505162815 80 214 4.0 10.0 0.00 0.00 0.00 58 1012.9
20260505162331 81 202 5.0 10.0 0.00 0.00 0.00 58 1012.9
20260505161827 80 202 0.0 9.0 0.00 0.00 0.00 60 1012.9
20260505161316 80 117 3.0 11.0 0.00 0.00 0.00 60 1013.0
20260505160825 80 182 4.0 13.0 0.00 0.00 0.00 58 1012.8
20260505153316 79 167 3.0 10.0 0.00 0.00 0.00 62 1013.2
20260505152832 79 194 3.0 10.0 0.00 0.00 0.00 61 1013.2
20260505152328 79 217 1.0 10.0 0.00 0.00 0.00 61 1013.2
20260505151825 79 207 2.0 10.0 0.00 0.00 0.00 60 1013.1
20260505151342 79 303 0.0 10.0 0.00 0.00 0.00 61 1013.1
20260505150817 79 180 1.0 8.0 0.00 0.00 0.00 61 1013.0
20260505150312 78 238 1.0 8.0 0.00 0.00 0.00 63 1013.1
20260505140411 76 213 1.0 9.0 0.00 0.00 0.00 69 1013.1
20260505124813 71 170 2.0 5.0 0.00 0.00 0.00 75 1012.7
20260505124311 70 121 0.0 0.0 0.00 0.00 0.00 76 1012.6
20260505123826 70 121 0.0 0.0 0.00 0.00 0.00 77 1012.5
20260505123321 69 87 0.0 0.0 0.00 0.00 0.00 79 1012.4
20260505122811 68 144 0.0 0.0 0.00 0.00 0.00 80 1012.3
20260505122328 68 143 0.0 0.0 0.00 0.00 0.00 81 1012.3
20260505121824 67 143 0.0 0.0 0.00 0.00 0.00 81 1012.3
20260505121319 67 143 0.0 0.0 0.00 0.00 0.00 82 1012.2
20260505120816 66 132 0.0 0.0 0.00 0.00 0.00 82 1012.1
20260505120333 66 132 0.0 0.0 0.00 0.00 0.00 83 1012.2
20260505115837 65 132 0.0 0.0 0.00 0.00 0.00 84 1012.1
20260505115311 65 132 0.0 0.0 0.00 0.00 0.00 84 1012.2
20260505114852 65 132 0.0 0.0 0.00 0.00 0.00 84 1012.2
20260505114327 64 132 0.0 0.0 0.00 0.00 0.00 84 1012.3
20260505113823 64 132 0.0 0.0 0.00 0.00 0.00 85 1012.2